Weather History for Deming, NM

Change the Weather History Date:

Friday, December 7, 2012

  Actual Average Record
Temperature  
Mean Temperature 51 °F 43 °F  
Max Temperature 68 °F 58 °F 72 °F (1970)
Min Temperature 33 °F 28 °F 10 °F (1953)
Degree Days  
Heating Degree Days 14    
Growing Degree Days 2 (Base 50)    
Moisture  
Dew Point 23 °F    
Average Humidity 37    
Maximum Humidity 49    
Minimum Humidity 24    
Precipitation  
Precipitation 0.00 in 0.03 in 0.31 in (1961)
Month to date precipitation 0.00 0.22  
Year to date precipitation 3.80 10.88  
Sea Level Pressure  
Sea Level Pressure 29.84 in    
Wind  
Wind Speed 9 mph (WSW)    
Max Wind Speed 24 mph    
Max Gust Speed 30 mph    
Visibility 10 miles    
Events      
T = Trace of Precipitation, MM = Missing Value Source: NWS Daily Summary

Daily Weather History Graph

Daily Weather History Graph

Search for Another Location

Airport:

Trip Planner

Search our weather history database for the weather conditions in past years. The results will help you decide how hot, cold, wet, or windy it might be!

Date:

Astronomy

Dec. 07, 2012 Rise Set
Actual Time 6:59 AM MST 5:05 PM MST
Civil Twilight 6:32 AM MST 5:32 PM MST
Nautical Twilight 6:01 AM MST 6:03 PM MST
Astronomical Twilight 5:32 AM MST 6:33 PM MST
Moon 12:40 AM MST (12/7) 12:47 PM MST (12/7)
Length of Visible Light 11h 00m
Length of Day
10h 06m
Last Quarter, 38% of the Moon is Illuminated
Dec 7
Last Quarter
Dec 13
New
Dec 19
First Quarter
Dec 28
Full
Jan 4
Last Quarter

Hourly Weather History & Observations

Time (MST) Temp. Windchill Dew Point Humidity Pressure Visibility Wind Dir Wind Speed Gust Speed Precip Events Conditions
12:53 AM 39.9 °F 37.8 °F 12.9 °F 33% 29.81 in 10.0 mi SSW 3.5 mph - N/A   Clear
1:53 AM 37.9 °F 32.7 °F 12.9 °F 36% 29.81 in 10.0 mi South 6.9 mph - N/A   Clear
2:53 AM 37.9 °F 34.4 °F 14.0 °F 38% 29.81 in 10.0 mi WSW 4.6 mph - N/A   Clear
3:53 AM 37.9 °F - 15.1 °F 39% 29.81 in 10.0 mi Calm Calm - N/A   Clear
4:53 AM 36.0 °F - 14.0 °F 41% 29.84 in 10.0 mi Calm Calm - N/A   Clear
5:53 AM 35.1 °F 32.2 °F 16.0 °F 46% 29.87 in 10.0 mi West 3.5 mph - N/A   Clear
6:53 AM 37.0 °F 33.3 °F 16.0 °F 42% 29.89 in 10.0 mi SW 4.6 mph - N/A   Clear
7:53 AM 37.9 °F 35.5 °F 17.1 °F 43% 29.91 in 10.0 mi SW 3.5 mph - N/A   Clear
8:53 AM 48.0 °F - 19.0 °F 32% 29.91 in 10.0 mi SSW 3.5 mph - N/A   Clear
9:53 AM 57.9 °F - 23.0 °F 26% 29.89 in 10.0 mi WSW 6.9 mph - N/A   Clear
10:53 AM 63.0 °F - 26.1 °F 25% 29.87 in 10.0 mi WSW 6.9 mph - N/A   Clear
11:53 AM 66.9 °F - 28.9 °F 24% 29.84 in 10.0 mi West 13.8 mph 18.4 mph N/A   Clear
12:53 PM 68.0 °F - 30.9 °F 25% 29.80 in 10.0 mi West 15.0 mph 24.2 mph N/A   Clear
1:53 PM 68.0 °F - 32.0 °F 26% 29.79 in 10.0 mi West 23.0 mph 27.6 mph N/A   Clear
2:53 PM 66.9 °F - 32.0 °F 27% 29.78 in 10.0 mi West 18.4 mph 28.8 mph N/A   Clear
3:53 PM 66.0 °F - 30.9 °F 27% 29.79 in 10.0 mi West 19.6 mph 27.6 mph N/A   Clear
4:53 PM 63.0 °F - 30.0 °F 29% 29.81 in 10.0 mi West 13.8 mph 24.2 mph N/A   Clear
6:53 PM 55.0 °F - 27.0 °F 34% 29.86 in 10.0 mi WNW 9.2 mph - N/A   Clear
7:53 PM 53.1 °F - 28.0 °F 38% 29.87 in 10.0 mi WNW 9.2 mph - N/A   Clear
8:53 PM 51.1 °F - 28.0 °F 41% 29.86 in 10.0 mi WNW 9.2 mph - N/A   Clear
9:53 PM 46.0 °F 41.4 °F 26.1 °F 46% 29.85 in 10.0 mi WSW 9.2 mph - N/A   Clear
10:53 PM 43.0 °F 38.8 °F 25.0 °F 49% 29.85 in 10.0 mi WSW 6.9 mph - N/A   Clear
11:53 PM 44.1 °F 40.1 °F 26.1 °F 49% 29.84 in 10.0 mi SW 6.9 mph - N/A   Clear